Weather in Kurkachi

Russia / Republic of Tatarstan     56°00′06″N   49°36′22″E
temp.,
°C
wind,
m/s
gust,
m/s
humid.,
%
clouds,
%
prec.,
mm/h
press.,
hPa
HPBL,
m
22 april, thu
thu2200:00+3sse81593100 0.6 1021708
03:00+3s81495100 0.8 1022605
06:00+3s61294100 0.0 1022401
09:00+5s71090100 0.0 1023479
12:00+7s6986100 0.0 1023572
15:00+10s7972100 0.0 10221145
18:00+9sse5107955 0.0 1022357
21:00+6s513885 0.1 1023314
23 april, fri
fri2300:00+4s410896 0.0 1024241
03:00+3s33935 0.0 102544
06:00+4sse35915 0.0 1025133
09:00+9sse44755 0.0 1025475
12:00+12s45606 0.0 10251272
15:00+14s455145 0.0 10231722
18:00+12se476880 0.0 1023228
21:00+9ese3673100 0.1 102289
24 april, sat
sat2400:00+7e3884100 0.0 1020169
03:00+6e51087100 0.0 1018236
06:00+6e51089100 0.0 1017382
09:00+8e5785100 0.0 1015631
12:00+6e4792100 1.3 1014804
15:00+6e4895100 2.2 1012490
18:00+7ese4993100 0.6 1010493
21:00+6ese4995100 0.7 1009385
25 april, sun
sun2500:00+6ese5109678 0.0 1006383
03:00+5s4897100 3.1 1005638
06:00+4wsw61184100 0.1 1005853
09:00+7wsw71067100 0.1 10061409
12:00+10wsw8104685 0.1 10072183
15:00+8w8957100 0.3 10091484
18:00+7wsw696293 0.2 1010798
21:00+4sw5126831 0.4 1012352
26 april, mon
mon2600:00+4sw612745 0.0 1013449
03:00+2sw613762 0.0 1014461
06:00+3sw612765 0.0 1015686
09:00+8sw7125776 0.0 10151391
12:00+9wsw9145596 0.3 10141814
15:00+10wsw8124454 0.6 10132482
18:00+8w4858100 0.0 1013450
21:00+5wsw2268100 0.0 101318